Location: Borgo
(42.3939°N, 9.2791°E)
Time: 06:09:14
(UTC+00:00)

STARLINK-1041 - Pass Details

Date: 27 February 2020
Orbit: 549 x 550 km, 53.0° (Epoch: 09 April)

Event Time Altitude Azimuth Distance (km) Brightness Sun altitude
Rises 18:07:14 0° 240° (WSW) 2,709 8.3 -11.4°
Reaches altitude 10° 18:09:28 10° 243° (WSW) 1,818 7.4 -11.8°
Maximum altitude 18:13:35 65° 326° (NNW) 606 3.9 -12.6°
Enters shadow 18:17:14 13° 48° (NE) 1,642 5.6 -13.3°
